Tracking 29799 objects as of 10-Oct-2024
HD Live streaming from Space Station
objects crossing your sky now

STARLINK-1611

Track STARLINK-1611 now!
10-day predictions
STARLINK-1611 is classified as:


NORAD ID: 46147
Int'l Code: 2020-057AG
Perigee: 553.3 km
Apogee: 555.6 km
Inclination: 53.1 °
Period: 95.6 minutes
Semi major axis: 6925 km
RCS: Unknown
Launch date: August 18, 2020
Source: United States (US)
Launch site: AIR FORCE EASTERN TEST RANGE (AFETR)
Your satellite tracking list
Your tracking list is empty




NASA's NSSDC Master Catalog

Two Line Element Set (TLE):
1 46147U 20057AG  24283.79048278 -.00009873  00000-0 -64549-3 0  9990
2 46147  53.0519 112.5802 0001709  87.0995 273.0189 15.06362419228965
Source of the keplerian elements: AFSPC